This is the latest recevied weather packets stored in our database for station/object WX7FGZ-7. If no packets are shown the sender has not sent any weather packets the latest 1 day(s).
| Time | Temp. | Humidity | Pressure | Rain* | Wind** | Luminosity | Snow |
|---|---|---|---|---|---|---|---|
| 1778044173 | 11.11° C | 48% | 1014.5 hPa | 0 mm | - | - | - |
| 1778043969 | 11.11° C | 48% | 1014.5 hPa | 0 mm | - | - | - |
| 1778043263 | 11.67° C | 47% | 1014.3 hPa | 0 mm | - | - | - |
| 1778042475 | 11.67° C | 46% | 1014.3 hPa | 0 mm | - | - | - |
| 1778041749 | 11.67° C | 45% | 1014 hPa | 0 mm | - | - | - |
| 1778041569 | 11.67° C | 45% | 1014 hPa | 0 mm | - | - | - |
| 1778041449 | 11.67° C | 45% | 1013.9 hPa | 0 mm | - | - | - |
| 1778040372 | 12.22° C | 45% | 1013.6 hPa | 0 mm | - | - | - |
| 1778039627 | 12.22° C | 44% | 1013.3 hPa | 0 mm | - | - | - |
| 1778039187 | 12.22° C | 44% | 1013.3 hPa | 0 mm | - | - | - |
| 1778038999 | 12.78° C | 43% | 1013.2 hPa | 0 mm | - | - | - |
| 1778036599 | 12.78° C | 42% | 1012.2 hPa | 0 mm | - | - | - |
| 1778036417 | 12.78° C | 42% | 1012.2 hPa | 0 mm | - | - | - |
| 1778034212 | 13.89° C | 39% | 1011.5 hPa | 0 mm | - | - | - |
| 1778034018 | 13.89° C | 39% | 1011.5 hPa | 0 mm | - | - | - |
| 1778033877 | 13.89° C | 40% | 1011.4 hPa | 0 mm | - | - | - |
| 1778033558 | 13.89° C | 40% | 1011.3 hPa | 0 mm | - | - | - |
| 1778033291 | 13.89° C | 40% | 1011.2 hPa | 0 mm | - | - | - |
| 1778032449 | 14.44° C | 40% | 1011 hPa | 0 mm | - | - | - |
| 1778032113 | 14.44° C | 39% | 1011 hPa | 0 mm | - | - | - |
| 1778031559 | 14.44° C | 39% | 1010.9 hPa | 0 mm | - | - | - |
| 1778031321 | 14.44° C | 39% | 1010.9 hPa | 0 mm | - | - | - |
| 1778031215 | 15° C | 39% | 1010.9 hPa | 0 mm | - | - | - |
| 1778031041 | 15° C | 39% | 1010.9 hPa | 0 mm | - | - | - |
| 1778030720 | 15° C | 38% | 1011.1 hPa | 0 mm | - | - | - |
* Rain latest hour (hover to see other rain measurements)
** Current wind speed in m/s (hover to see current wind gust speed)